Regional Weather Roundup
Issued by NWS

Home | Current Version | Previous Version | Graphics & Text | Print | Product List | Glossary On
Versions: 1 2 3 4 5 6 7 8 9 10 11 12 13 14 15 16 17 18 19 20 21 22 23 24 25 26 27 28 29 30 31 32 33 34 35 36 37 38 39 40 41 42 43 44 45 46 47 48 49 50
000
ASUS43 KLMK 020702
RWRKY
KENTUCKY REGIONAL WEATHER ROUNDUP
NATIONAL WEATHER SERVICE LOUISVILLE KY
200 AM EST MON MAR 02 2015

NOTE "FAIR" INDICATES FEW OR NO CLOUDS BELOW 12,000 FEET
WITH NO SIGNIFICANT WEATHER AND/OR OBSTRUCTIONS TO VISIBILITY.

KYZ001>023-026-027-061>063-070>075-020800-
WESTERN AND SOUTH CENTRAL KENTUCKY

CITY           SKY/WX    TMP DP  RH WIND       PRES   REMARKS
PADUCAH        MOCLDY    31  24  75 N12       30.46R WCI  22
HENDERSON      PTCLDY    28  21  74 N7        30.46S WCI  21
OWENSBORO      MOCLDY    30  24  78 N9        30.44R WCI  22
HOPKINSVILLE   CLOUDY    32  30  93 N8        30.41R WCI  25
BOWLING GREEN  CLOUDY    34  31  88 N6        30.40R FOG     WCI  29
GLASGOW        NOT AVBL
$$

KYZ024-025-028>034-038-045-046-053-020800-
NORTH CENTRAL KENTUCKY

CITY           SKY/WX    TMP DP  RH WIND       PRES   REMARKS
LOUISVILLE/SDF MOCLDY    33  25  72 NW12      30.40R WCI  24
LOUISVILLE/LOU CLOUDY    33  27  78 NW9       30.39R WCI  25
FORT KNOX      CLOUDY    31  28  87 NW9       30.37R WCI  23
$$

KYZ035>037-039>044-047>052-055>060-089>105-020800-
NORTHEAST KENTUCKY

CITY           SKY/WX    TMP DP  RH WIND       PRES   REMARKS
LEXINGTON      CLOUDY    32  31  96 NW13      30.34R FOG     WCI  22
COVINGTON      CLOUDY    29  22  75 NW17      30.36R WCI  17
FRANKFORT      CLOUDY    32  29  88 NW10      30.35R WCI  24
$$

KYZ054-064>069-076>088-106>120-020800-
SOUTHEAST KENTUCKY

CITY           SKY/WX    TMP DP  RH WIND       PRES   REMARKS
JACKSON        LGT RAIN  36  35  96 W8        30.28R WCI  30
LONDON         LGT RAIN  40  36  86 NW6       30.31R
SOMERSET       NOT AVBL
MIDDLESBORO    NOT AVBL
MONTICELLO     LGT SNOW  38  37  96 W8        30.37R FOG     WCI  32
$$



USA.gov is the U.S. government's official web portal to all federal, state and local government web resources and services.